2020 AO
ephemeris date magn radius delta ra dec elong phase
Today15 Oct 202526.82.015 AU1.082 AU23h24m+06°17'151.5°13.7°
2020 AO - 2025-10-15
astro.vanbuitenen.nl


 
-1 year
-1 month
-1 day
Now
+1 day
+1 month
+1 year

The interactive orbit chart above shows the body's path through the solar system and its position at the given date. Green and blue lines are shown perpendicular to the ecliptic plane: Green if the path is above the ecliptic plane, blue if it is below. (Left-click and drag to rotate the view; Right-click and drag to move the view; Use scroll wheel to zoom in our out.)

The orbital elements of 2020 AO are:

            e (Eccentricity)                : 0.6080145
            a (Semimajor axis)              : 1.4253783
            i (Inclination)                 : 5.70260
            Ω (Longitude of ascending node) : 307.30144
            ω (Argument of perihelion)      : 264.62713
            M (Mean anomaly)                : 12.96889
            Epoch                           : 2025 May 05

            L (Longitude of perihelion)     : 31.90201
            B (Latitude of perihelion)      : -5.67746
            P (Orbital period in years)     : 1.70            
        

The light curve chart below shows the estimated development of the minor planet's magnitude.


The all-sky chart below shows the path of the minor planet over the same period as the light curve. The current position is marked yellow.





The following chart shows the path of the minor planet in the next few days. The field of view is optimized for (~10x50) binoculars and finderscopes. A more printer-friendly version of the same chart can be found below.




Ephemerides:
Date       Time       RA (2000)    DEC (2000)    delta   radius  elong  phase   PA    magn
2025-10-15 00:00 UT   23 24 51.6   +06 17 10     1.082    2.015  151.5   13.7    84   26.8 
2025-10-15 05:53 UT   23 24 34.6   +06 14 32     1.085    2.016  151.2   13.8    84   26.8 
2025-10-16 00:00 UT   23 23 43.5   +06 06 33     1.093    2.020  150.2   14.2    83   26.8 
2025-10-17 00:00 UT   23 22 38.3   +05 56 10     1.104    2.024  149.0   14.7    82   26.9 
2025-10-18 00:00 UT   23 21 36.2   +05 46 03     1.115    2.029  147.8   15.2    81   26.9 
2025-10-19 00:00 UT   23 20 37.0   +05 36 11     1.126    2.033  146.6   15.7    81   27.0 
2025-10-20 00:00 UT   23 19 40.8   +05 26 36     1.138    2.037  145.4   16.1    80   27.0 
2025-10-21 00:00 UT   23 18 47.6   +05 17 16     1.150    2.042  144.1   16.6    79   27.0 
2025-10-22 00:00 UT   23 17 57.2   +05 08 13     1.162    2.046  143.0   17.0    79   27.1 
2025-10-23 00:00 UT   23 17 09.8   +04 59 26     1.174    2.050  141.8   17.5    78   27.1 
2025-10-24 00:00 UT   23 16 25.3   +04 50 56     1.186    2.055  140.6   17.9    78   27.2 
2025-10-25 00:00 UT   23 15 43.6   +04 42 43     1.199    2.059  139.4   18.3    77   27.2 
2025-10-26 00:00 UT   23 15 04.8   +04 34 47     1.212    2.063  138.3   18.7    77   27.2 
2025-10-27 00:00 UT   23 14 28.7   +04 27 08     1.225    2.067  137.1   19.1    76   27.3 
2025-10-28 00:00 UT   23 13 55.4   +04 19 46     1.238    2.071  136.0   19.5    76   27.3 
2025-10-29 00:00 UT   23 13 24.7   +04 12 40     1.251    2.075  134.9   19.8    75   27.4 
2025-10-30 00:00 UT   23 12 56.8   +04 05 51     1.265    2.079  133.7   20.2    75   27.4 
2025-10-31 00:00 UT   23 12 31.4   +03 59 20     1.278    2.083  132.6   20.5    75   27.4 
2025-11-01 00:00 UT   23 12 08.7   +03 53 04     1.292    2.087  131.5   20.9    74   27.5 
2025-11-02 00:00 UT   23 11 48.4   +03 47 06     1.306    2.091  130.4   21.2    74   27.5 
2025-11-03 00:00 UT   23 11 30.7   +03 41 23     1.320    2.094  129.4   21.5    74   27.6 
2025-11-04 00:00 UT   23 11 15.4   +03 35 57     1.334    2.098  128.3   21.8    73   27.6 
2025-11-05 00:00 UT   23 11 02.4   +03 30 48     1.348    2.102  127.2   22.1    73   27.6 
2025-11-06 00:00 UT   23 10 51.8   +03 25 53     1.362    2.106  126.2   22.3    73   27.7 
2025-11-07 00:00 UT   23 10 43.5   +03 21 15     1.377    2.109  125.1   22.6    73   27.7 
2025-11-08 00:00 UT   23 10 37.4   +03 16 52     1.392    2.113  124.1   22.9    72   27.7 
2025-11-09 00:00 UT   23 10 33.5   +03 12 45     1.406    2.116  123.1   23.1    72   27.8 
2025-11-10 00:00 UT   23 10 31.8   +03 08 53     1.421    2.120  122.0   23.3    72   27.8 
2025-11-11 00:00 UT   23 10 32.2   +03 05 15     1.436    2.123  121.0   23.5    72   27.8 
2025-11-12 00:00 UT   23 10 34.7   +03 01 53     1.451    2.127  120.0   23.8    71   27.9 
2025-11-13 00:00 UT   23 10 39.2   +02 58 45     1.466    2.130  119.0   24.0    71   27.9 
2025-11-14 00:00 UT   23 10 45.7   +02 55 52     1.481    2.134  118.1   24.2    71   27.9 


    Terminology:
            
    delta:  distance between minor planet and earth in AU
    radius: distance between minor planet and sun in AU
    magn:   magnitude (brightness) estimate    
    ra:     right ascension in hours (24h = 360deg)
    dec:    declination in degrees
    elong:  elongation in degrees (angle sun-earth-minor planet)    
    phase:  phase angle in degrees (angle sun-minor planet-earth)        
    AU:     Astronomical Unit (mean distance between earth and sun: 149597870.7 km
    

Orbital elements provided by the MPC (Minor Planet Center).
Calculations by a modified version of AAPlus, a C# implementation of the AA+ project by PJ Naughter from the algorithms presented in the book "Astronomical Algorithms" by Jean Meeus.
NGC2000 dso catalog and star labels from VizieR as provided by the Strasbourg astronomical Data Center.
Tycho2 catalog from the ESO archive.